Temp
-2 -2 -2 -1 0 2 2 1 3 3 2 2 1 2 2 2 4 5 5 5 4 4 5 6 8 8 7 7 7 7 6 6 6 5 5 5 6 6 5 5 5 5 5 5
-2 -2 -2 -1 0 1 1 2 2 2 1 2 2 1 1 2 4 4 4 4 4 5 6 7 7 7 7 7 7 7 7 6 6 6 5 5 5 6 5 5 5 5 5 5
-2 -1 -1 -1 -0 0 1 1 1 1 0 1 1 1 3 2 4 5 5 5 5 6 6 7 7 7 6 7 7 6 6 6 6 6 6 5 5 5 5 5 5 5 5 4
-2 -2 -2 -1 -1 0 1 0 0 -0 0 3 1 6 3 3 4 4 5 5 5 6 6 6 6 6 6 6 6 6 6 6 6 6 6 6 6 5 5 5 5 5 4 4
-2 -2 -2 -1 -0 0 -0 -0 -1 -1 0 1 1 3 4 3 2 3 4 4 4 4 4 4 5 5 5 5 5 6 5 6 6 6 6 6 5 5 5 5 5 4 5 4
-2 -2 -2 -1 -1 -0 -1 -1 -1 -1 -0 1 2 3 3 2 1 0 1 2 3 3 3 3 3 4 4 4 5 5 5 5 5 5 5 5 5 5 5 5 4 4 4 3
-2 -2 -2 -1 -2 -2 -1 -1 0 0 -0 2 1 1 5 3 2 1 0 1 2 2 2 3 3 3 4 4 4 4 4 4 5 5 5 5 5 4 4 4 4 4 3 3
-2 -3 -2 -2 -2 -2 -2 -0 2 2 3 3 -1 1 3 1 2 -0 1 1 1 2 2 3 3 3 3 4 4 4 4 4 5 5 5 4 4 4 3 3 3 3 3 3
-2 -3 -3 -2 -2 -2 -2 -2 -1 0 1 2 2 1 1 1 1 0 1 1 1 2 2 2 3 3 3 4 4 4 4 4 4 4 4 4 4 3 3 3 2 2 2 2
-2 -3 -3 -3 -2 -2 -2 -2 -2 -1 1 3 3 4 4 1 1 0 0 0 1 1 2 2 3 3 3 4 4 4 4 5 4 4 4 4 3 3 3 2 2 1 1 1
-1 -2 -3 -3 -3 -3 -3 -3 -1 -1 -0 3 5 4 2 1 1 0 -1 0 1 1 2 2 2 2 3 3 4 4 4 4 4 4 4 4 3 3 3 2 1 1 0 0
-1 -3 -3 -3 -2 -2 -2 -1 -1 1 -0 -0 -0 2 1 -0 -1 -0 -0 1 1 1 1 2 2 2 3 3 3 4 4 4 4 3 3 3 3 2 2 2 1 1 -0 -1
-2 -2 -4 -3 -3 -3 -3 -2 -2 -2 -2 -2 2 2 1 -0 -0 0 0 0 0 1 1 1 2 2 3 3 3 4 4 4 3 3 2 2 2 2 2 2 1 1 0 -1
-2 -2 -2 -0 -1 -2 -3 -2 -3 -3 -2 -0 0 1 -0 -0 -1 -0 -0 0 0 1 1 1 2 2 2 3 3 3 4 3 3 2 2 2 2 2 2 2 1 0 -0 -1
-3 -3 -2 -2 -2 -2 -2 -3 -4 -4 -2 -1 1 1 0 -0 -1 -1 -0 -0 -0 0 1 1 1 2 2 3 3 3 3 3 3 2 2 1 2 2 2 1 1 0 0 -0
-3 -3 -3 -3 -2 -2 -2 -2 -3 -2 -2 -3 -2 -1 -1 -1 -1 -0 -0 -0 -0 0 1 1 1 2 2 2 2 2 2 3 2 2 1 1 1 1 1 1 1 0 0 0
-4 -4 -3 -3 -3 -3 -3 -0 -1 -1 -0 -0 -3 0 -1 -1 -1 -0 -0 -0 -0 0 0 1 1 1 1 2 2 2 2 1 2 1 0 -0 1 0 -0 -0 -0 -0 -0 -0
-4 -4 -4 -4 -4 -3 -1 -1 -0 -1 -2 -1 -1 -1 -1 -1 -0 -0 -0 -0 0 0 -0 1 0 1 1 2 2 2 1 1 1 1 1 -0 -0 -0 -1 -2 -1 -2 -1 -2
-4 -4 -4 -4 -3 -1 -1 -1 -1 -1 -1 -0 0 -1 -1 -1 -0 -0 -0 0 0 -0 0 0 0 1 1 1 1 1 1 1 0 1 0 0 0 -0 -1 -1 -2 -4 -3 -3
-4 -4 -4 -4 -3 -1 -2 -1 -1 -1 -1 -0 -1 -1 -1 -1 -1 -1 -0 0 0 -0 0 0 0 0 0 0 0 0 0 1 1 0 0 0 0 -0 -1 -2 -2 -2 -3 -3
-4 -4 -4 -4 -3 -3 -2 -1 -2 -2 -1 -1 -1 -1 -1 -1 -1 -0 0 0 0 -0 0 -0 -0 -0 -0 -0 -0 0 -0 -0 -0 -0 -1 -1 -1 -1 -2 -2 -3 -3 -3 -3
-4 -4 -4 -4 -4 -3 -2 -2 -2 -2 -1 -2 -1 -2 -2 -1 -1 -0 0 0 0 0 -0 -1 -0 -1 -1 -1 -1 -1 -1 -1 -1 -1 -1 -1 -1 -1 -2 -2 -2 -2 -3 -3
-4 -3 -3 -3 -2 -2 -2 -3 -3 -2 -2 -2 -2 -2 -2 -2 -1 -1 -0 0 0 -0 -0 -1 -1 -1 -1 -1 -1 -1 -1 -1 -1 -1 -1 -2 -2 -2 -2 -2 -2 -3 -3 -3
-3 -4 -3 -3 -2 -2 -2 -2 -2 -2 -2 -2 -2 -2 -2 -2 -2 -1 -1 -0 -0 -0 -0 -1 -1 -1 -2 -2 -2 -2 -2 -2 -2 -2 -2 -2 -2 -2 -2 -3 -3 -3 -3 -3
-3 -3 -3 -2 -2 -2 -2 -2 -2 -2 -3 -2 -2 -2 -2 -2 -2 -1 -1 -1 -1 -0 -1 -1 -1 -2 -3 -3 -2 -2 -2 -2 -2 -2 -2 -2 -3 -3 -3 -3 -3 -3 -3 -3
-3 -2 -2 -3 -3 -2 -3 -3 -2 -3 -3 -2 -2 -2 -2 -2 -2 -1 -1 -1 -1 -1 -1 -1 -1 -2 -3 -3 -2 -3 -3 -2 -3 -3 -3 -3 -3 -3 -3 -3 -3 -3 -3 -3
Height
3049 3053 3053 3057 3065 3074 3078 3081 3083 3087 3086 3088 3091 3094 3097 3099 3099 3101 3103 3105 3106 3108 3109 3108 3109 3111 3113 3115 3118 3120 3122 3124 3127 3128 3129 3126 3129 3133 3133 3134 3135 3134 3134 3136
3049 3048 3056 3063 3068 3073 3075 3077 3081 3084 3085 3086 3089 3088 3090 3092 3094 3096 3097 3098 3100 3100 3101 3101 3104 3105 3106 3108 3109 3112 3113 3115 3118 3120 3121 3121 3118 3122 3124 3126 3127 3128 3128 3129
3042 3046 3054 3060 3065 3070 3074 3076 3079 3082 3082 3083 3084 3084 3085 3086 3087 3087 3090 3092 3093 3094 3094 3095 3097 3098 3100 3101 3102 3105 3106 3107 3109 3110 3111 3111 3110 3110 3112 3115 3117 3120 3121 3120
3046 3049 3051 3058 3063 3069 3071 3075 3076 3078 3081 3082 3082 3079 3078 3078 3080 3082 3083 3085 3086 3087 3088 3089 3090 3092 3094 3095 3096 3097 3098 3099 3100 3101 3102 3102 3102 3101 3103 3104 3105 3107 3109 3111
3041 3046 3051 3056 3062 3067 3070 3072 3075 3077 3079 3079 3080 3082 3075 3074 3075 3077 3078 3080 3081 3082 3083 3084 3086 3087 3088 3089 3090 3090 3091 3092 3092 3093 3093 3094 3093 3094 3094 3094 3095 3096 3098 3099
3039 3044 3049 3054 3059 3066 3067 3071 3075 3077 3078 3078 3075 3078 3072 3070 3071 3073 3074 3076 3077 3079 3080 3081 3082 3083 3083 3084 3085 3085 3086 3086 3086 3086 3086 3086 3086 3086 3086 3085 3085 3087 3088 3088
3039 3044 3047 3052 3057 3061 3066 3070 3074 3077 3077 3072 3071 3074 3068 3069 3070 3071 3072 3073 3074 3076 3078 3079 3079 3079 3079 3079 3079 3079 3080 3080 3079 3079 3078 3078 3078 3078 3078 3077 3077 3077 3078 3078
3039 3047 3047 3046 3053 3056 3062 3066 3065 3064 3063 3064 3070 3068 3065 3065 3066 3070 3069 3071 3073 3074 3074 3075 3075 3075 3075 3074 3074 3074 3073 3072 3071 3070 3070 3070 3069 3069 3069 3069 3069 3068 3068 3069
3039 3043 3044 3045 3050 3057 3059 3062 3064 3064 3062 3064 3063 3064 3062 3061 3064 3066 3068 3070 3071 3071 3071 3071 3070 3070 3069 3068 3067 3067 3065 3063 3061 3061 3061 3060 3060 3060 3060 3059 3059 3059 3059 3059
3040 3044 3046 3046 3049 3052 3056 3061 3064 3063 3063 3058 3056 3057 3055 3057 3060 3064 3067 3067 3068 3067 3066 3065 3064 3063 3061 3060 3059 3058 3056 3054 3053 3052 3052 3052 3051 3050 3050 3050 3050 3050 3050 3050
3039 3043 3050 3050 3051 3053 3054 3056 3059 3060 3059 3055 3049 3053 3054 3054 3057 3062 3064 3065 3064 3063 3061 3060 3059 3057 3055 3054 3052 3050 3048 3046 3046 3045 3043 3043 3043 3042 3041 3040 3040 3040 3040 3040
3040 3042 3046 3049 3048 3050 3050 3055 3058 3059 3059 3058 3057 3055 3054 3056 3058 3060 3062 3062 3060 3059 3058 3056 3053 3052 3049 3047 3045 3042 3041 3039 3038 3038 3037 3036 3036 3035 3034 3032 3031 3031 3030 3029
3041 3043 3045 3048 3050 3048 3048 3050 3052 3054 3054 3055 3055 3053 3053 3054 3056 3058 3058 3058 3057 3054 3053 3051 3048 3045 3042 3040 3038 3037 3036 3034 3033 3032 3031 3031 3030 3028 3026 3026 3026 3025 3023 3020
3040 3041 3042 3043 3043 3043 3044 3045 3048 3050 3052 3052 3051 3052 3052 3054 3056 3055 3055 3055 3054 3052 3050 3047 3043 3039 3035 3034 3033 3031 3030 3028 3027 3026 3025 3024 3023 3022 3021 3021 3020 3018 3016 3013
3040 3040 3041 3041 3041 3041 3042 3042 3044 3044 3046 3049 3049 3050 3052 3053 3053 3052 3053 3052 3051 3049 3047 3044 3040 3035 3032 3030 3028 3026 3024 3023 3022 3020 3019 3018 3017 3017 3016 3014 3011 3009 3008 3007
3038 3039 3040 3040 3039 3039 3038 3039 3039 3039 3040 3043 3045 3046 3047 3049 3049 3049 3049 3049 3048 3046 3044 3041 3038 3033 3030 3026 3022 3020 3019 3018 3018 3016 3015 3012 3012 3012 3010 3008 3005 3003 3002 3001
3038 3038 3039 3039 3038 3037 3035 3030 3032 3033 3035 3038 3040 3042 3044 3045 3045 3046 3047 3046 3045 3043 3041 3038 3035 3033 3030 3027 3022 3019 3016 3014 3013 3012 3009 3007 3007 3006 3004 3002 3000 2998 2997 2996
3035 3036 3037 3037 3037 3036 3027 3026 3026 3027 3030 3032 3035 3038 3041 3042 3042 3043 3044 3043 3042 3041 3039 3035 3035 3032 3031 3026 3020 3016 3015 3012 3010 3008 3006 3004 3002 3001 2999 2997 2997 2995 2994 2993
3033 3034 3035 3035 3034 3028 3024 3023 3025 3025 3026 3025 3030 3035 3037 3038 3040 3040 3040 3040 3039 3039 3035 3035 3033 3031 3029 3024 3019 3016 3013 3010 3007 3006 3004 3002 3000 2998 2997 2996 2995 2994 2993 2992
3030 3032 3034 3034 3034 3027 3023 3022 3023 3025 3025 3024 3028 3032 3034 3036 3037 3036 3036 3036 3037 3035 3034 3033 3031 3030 3026 3022 3020 3018 3014 3012 3010 3007 3005 3003 3002 2999 2997 2996 2996 2994 2994 2993
3027 3029 3030 3031 3030 3024 3022 3021 3022 3026 3027 3023 3026 3029 3031 3032 3033 3033 3032 3033 3033 3032 3032 3030 3029 3027 3025 3023 3020 3018 3016 3014 3012 3010 3008 3007 3005 3003 3001 3000 2999 2998 2997 2996
3023 3026 3026 3028 3028 3023 3018 3020 3023 3022 3022 3023 3024 3025 3027 3029 3029 3029 3029 3029 3030 3030 3029 3028 3026 3025 3023 3022 3020 3019 3016 3015 3013 3011 3009 3009 3008 3006 3005 3004 3003 3001 3000 2998
3022 3020 3021 3022 3020 3017 3017 3018 3018 3019 3020 3020 3021 3022 3024 3026 3026 3026 3026 3026 3026 3026 3026 3025 3024 3024 3022 3020 3020 3017 3016 3015 3014 3013 3011 3010 3009 3008 3006 3005 3004 3003 3001 3000
3013 3015 3015 3016 3015 3015 3015 3015 3016 3017 3018 3019 3020 3021 3022 3022 3024 3024 3024 3023 3023 3023 3022 3022 3022 3021 3019 3018 3018 3017 3016 3015 3014 3013 3011 3010 3009 3008 3007 3006 3004 3003 3001 2999
3011 3009 3010 3010 3011 3012 3012 3013 3013 3014 3016 3017 3018 3019 3019 3020 3020 3020 3021 3020 3020 3019 3019 3019 3019 3018 3016 3016 3015 3015 3014 3013 3013 3012 3011 3010 3009 3008 3007 3006 3004 3002 3000 2998
3002 3004 3005 3006 3006 3007 3009 3009 3011 3011 3012 3012 3013 3013 3013 3014 3014 3015 3015 3016 3015 3015 3014 3015 3015 3014 3013 3013 3012 3012 3011 3011 3011 3011 3010 3009 3008 3007 3006 3005 3003 3002 3000 2998
Wind_Speed
31 26 37 36 32 21 18 23 19 19 22 14 22 20 20 20 22 23 25 25 22 22 24 31 35 36 37 37 38 40 42 43 43 44 44 47 43 41 42 39 37 36 37 38
31 33 26 23 22 22 11 19 22 13 20 25 14 18 19 21 23 24 24 25 26 28 31 33 32 35 36 38 39 40 42 44 44 45 46 47 50 45 44 44 43 41 40 39
35 28 25 23 24 22 17 17 19 10 17 15 12 18 19 21 23 27 26 26 27 29 31 32 33 33 34 37 37 38 39 40 42 44 45 48 52 50 49 47 47 45 44 42
23 15 27 24 23 22 18 15 15 12 10 10 11 3 13 19 23 23 24 25 27 28 29 30 31 31 31 32 33 34 35 37 37 38 39 40 42 44 43 44 44 43 45 46
15 26 22 21 21 19 12 18 12 12 7 4 8 7 10 15 17 19 20 21 21 22 23 23 23 24 25 26 27 27 27 27 27 28 32 36 40 43 43 42 41 42 43 45
21 27 23 20 21 19 14 16 10 7 3 5 13 12 13 16 17 17 16 16 16 15 15 15 17 20 22 22 22 23 24 26 27 28 30 31 33 34 36 39 42 43 42 42
27 26 23 27 24 22 18 17 6 5 4 4 10 9 2 14 14 15 13 15 14 13 12 13 15 17 18 21 23 25 27 28 29 30 32 33 35 35 35 35 37 42 46 48
7 5 24 27 31 23 22 21 4 6 6 7 8 8 3 14 18 17 16 13 12 12 14 17 18 20 22 24 26 29 31 34 36 37 38 38 39 39 38 37 37 38 39 41
5 6 9 23 29 27 29 15 9 2 2 2 9 7 9 16 18 19 16 13 14 15 17 19 22 24 27 29 32 33 34 35 38 39 40 41 41 42 41 41 40 40 39 40
7 9 6 11 16 21 22 18 6 4 4 5 7 7 6 18 21 18 15 14 15 16 19 22 25 27 29 30 31 32 33 33 33 33 35 35 37 39 41 43 44 43 42 41
10 4 9 10 7 7 7 7 7 4 3 3 3 4 5 12 16 16 11 11 14 18 21 22 24 26 27 29 30 30 27 26 25 26 26 25 25 26 29 32 36 39 42 44
5 5 7 7 13 14 14 10 12 6 6 4 2 1 12 14 15 13 10 13 17 16 17 20 22 24 24 25 24 23 22 22 20 19 19 20 21 22 23 25 29 32 34 35
7 2 5 2 7 15 17 18 13 10 6 8 4 5 13 16 10 7 10 12 14 14 15 18 22 22 22 20 19 18 19 19 18 18 19 20 21 22 24 28 31 30 30 33
8 6 7 3 2 5 13 18 18 18 10 8 11 3 12 15 5 9 12 12 11 11 13 16 18 18 17 16 16 16 17 18 19 20 21 22 23 24 27 30 32 31 30 31
9 7 11 8 6 5 5 10 17 25 24 12 4 14 12 8 7 11 11 10 10 10 12 16 17 17 14 14 16 16 17 18 19 21 25 23 24 26 25 26 24 25 26 26
13 7 10 11 12 12 16 17 16 17 22 24 18 15 13 11 14 11 12 9 11 11 13 14 13 15 15 14 14 17 19 19 18 19 19 17 22 24 22 21 20 19 21 20
9 10 7 3 7 9 15 21 25 23 22 21 22 16 8 11 13 13 12 13 12 12 13 13 14 14 15 15 14 12 12 11 12 12 12 11 15 16 16 17 19 19 18 20
9 10 7 3 2 4 8 8 8 22 21 22 20 13 13 15 15 13 14 14 12 12 13 13 14 14 13 15 13 8 7 6 8 10 9 11 12 15 14 15 13 16 13 15
10 9 3 3 7 13 12 12 8 6 9 20 17 16 16 15 13 14 12 12 11 12 10 12 13 13 12 13 16 14 14 11 7 7 8 9 9 9 9 10 13 13 14 17
11 11 8 5 4 4 2 6 9 4 5 10 16 16 13 10 8 10 8 9 11 10 9 11 11 12 11 12 11 12 13 14 14 14 15 15 15 13 11 8 9 9 7 6
13 12 16 12 7 10 9 5 8 6 6 16 19 15 9 6 7 8 9 10 10 9 9 9 10 11 11 10 10 10 10 10 9 10 11 11 11 13 13 12 11 10 10 10
14 9 10 13 8 9 8 11 9 11 10 15 21 17 8 5 6 8 8 10 10 10 10 10 11 10 10 9 8 8 7 7 6 6 8 8 8 8 8 8 7 7 7 8
11 13 8 11 7 14 9 10 17 13 8 10 20 15 7 7 7 8 9 10 11 10 9 10 11 12 9 8 7 7 5 4 4 4 5 5 6 6 6 6 6 6 7 8
16 14 16 12 12 16 11 10 13 14 11 8 6 8 10 10 12 12 11 11 13 12 10 10 11 11 9 7 7 6 4 3 3 3 2 3 4 5 5 5 6 7 9 11
15 15 20 23 20 13 11 17 14 14 15 16 18 18 18 18 19 18 15 14 14 15 12 12 12 12 11 9 9 7 5 5 4 4 3 3 4 5 6 7 8 9 11 13
25 23 20 15 13 11 14 17 17 19 22 24 24 24 25 24 22 22 20 18 17 16 16 14 14 12 11 10 9 8 7 7 7 7 5 5 5 6 7 9 10 12 14 15
Wind_Direction
186 189 194 196 203 204 217 213 222 212 230 225 226 237 235 242 247 246 245 244 245 246 248 244 244 249 251 252 251 251 251 253 250 252 256 260 262 260 264 264 262 262 263 264
186 198 197 199 204 207 215 205 205 208 225 234 233 240 237 243 251 250 247 242 241 240 243 248 248 249 251 253 255 255 256 257 259 259 260 263 269 266 265 264 262 262 263 262
190 199 181 193 192 199 205 199 197 215 218 223 232 256 249 239 244 244 248 246 245 244 244 247 249 249 251 254 258 260 261 263 264 264 265 265 268 273 271 270 269 266 263 262
200 184 186 182 186 192 195 195 194 196 186 220 220 255 196 234 233 238 241 242 241 241 243 247 250 253 255 256 259 263 265 266 266 266 266 267 267 270 272 271 270 266 262 259
185 185 187 184 184 179 195 198 185 193 207 241 216 240 198 228 224 223 229 233 236 238 241 245 250 254 255 258 261 263 267 269 269 266 264 264 266 268 270 270 269 267 267 262
157 179 176 191 191 191 194 192 195 200 183 246 222 218 200 202 212 202 213 222 227 231 238 244 248 253 256 258 261 265 266 266 267 267 267 268 271 273 271 271 269 266 266 264
165 168 189 183 186 183 190 169 153 193 196 234 185 210 229 197 192 203 200 214 223 229 234 240 247 254 260 264 266 268 270 273 274 274 274 272 271 270 271 272 273 271 268 266
139 147 197 174 192 194 185 185 225 208 195 176 191 222 225 213 209 189 211 214 220 231 243 250 258 264 270 272 273 275 276 276 275 274 275 276 274 274 275 274 274 273 272 271
111 85 180 184 193 192 193 199 205 293 84 182 191 205 234 216 206 199 209 214 232 248 262 272 277 279 280 280 279 278 277 275 274 272 271 271 273 274 273 272 272 272 271 270
128 109 118 125 166 189 181 193 196 210 206 215 182 211 186 204 205 213 212 236 257 272 281 286 287 288 286 284 284 284 283 278 274 273 271 272 273 274 273 270 268 267 268 268
144 130 155 157 185 184 178 192 196 190 243 285 195 145 169 188 190 184 210 255 281 288 291 291 288 287 285 285 283 282 281 279 277 276 275 273 272 273 273 273 272 271 270 269
170 130 142 186 219 197 194 204 204 215 207 225 306 109 151 160 169 200 245 284 293 294 292 292 291 289 282 287 283 282 285 284 280 276 272 272 275 278 279 280 282 280 277 274
193 149 122 174 248 232 227 221 208 230 207 215 229 143 188 185 197 257 288 290 299 296 300 306 304 298 288 283 284 286 287 283 277 274 278 280 278 280 285 285 281 282 281 281
202 208 200 230 188 189 213 222 219 217 213 220 224 129 187 197 254 277 277 294 296 303 315 325 326 309 292 281 285 289 293 287 281 282 285 285 286 285 283 282 280 278 285 292
213 233 227 230 245 252 243 230 220 218 220 223 243 222 179 225 248 249 270 280 306 312 315 329 335 338 312 291 286 287 292 292 289 289 283 280 281 278 281 281 286 285 284 290
216 232 236 251 258 266 260 248 240 237 236 235 243 251 236 240 241 246 265 283 303 316 325 335 338 348 350 345 321 301 288 281 284 293 290 287 278 275 278 284 292 294 286 291
213 231 222 242 260 276 277 257 240 238 240 236 229 249 226 212 236 246 260 278 294 310 322 345 357 353 351 348 330 305 296 276 284 294 290 300 293 284 281 290 305 295 292 288
200 210 209 263 238 241 252 261 241 235 238 238 238 218 208 232 242 252 265 271 287 302 325 343 334 343 340 358 7 359 344 332 332 324 318 315 309 296 294 297 305 323 306 311
202 199 205 226 237 278 281 260 233 242 271 234 218 204 216 233 253 264 263 271 279 293 330 332 333 337 342 8 24 38 35 16 15 5 360 348 348 338 326 324 326 326 325 314
207 205 218 198 257 261 286 256 218 224 247 191 186 190 208 236 258 271 270 270 272 292 310 332 333 336 352 10 13 17 36 42 50 54 53 51 46 44 39 20 349 353 359 25
200 215 225 234 249 268 272 248 196 208 184 198 187 190 208 243 262 273 275 272 273 290 300 320 323 337 345 358 10 12 25 32 37 50 50 47 48 55 60 67 70 72 70 68
193 199 212 223 233 265 248 217 198 235 240 215 203 203 208 256 282 286 278 269 269 278 294 309 326 326 333 342 351 356 15 18 18 38 52 48 47 53 55 57 56 53 50 44
218 208 217 204 233 254 262 213 221 235 257 239 225 205 210 260 284 292 290 272 266 268 286 295 315 310 317 325 333 347 355 5 6 20 49 48 37 32 34 33 33 30 24 15
229 219 230 238 254 250 259 252 237 236 239 239 243 251 246 259 278 283 289 285 271 267 275 277 295 303 305 300 310 318 312 312 328 331 23 25 11 4 1 3 1 359 357 353
233 242 244 254 251 255 249 248 249 243 246 260 269 270 268 267 268 273 274 281 278 270 267 266 275 290 308 280 282 285 280 285 286 282 304 323 335 333 336 339 340 342 341 340
247 249 248 257 265 258 250 250 255 257 264 270 271 272 269 268 266 261 264 267 275 273 267 264 267 280 279 287 268 265 268 269 277 274 282 296 306 317 326 326 327 330 330 331